Regional Weather Roundup
Issued by NWS Goodland, KS

Home | Current Version | Previous Version | Graphics & Text | Print | Product List | Glossary On
Versions: 1 2 3 4 5 6 7 8 9 10 11 12 13 14 15 16 17 18 19 20 21 22 23 24 25 26 27 28 29 30 31 32 33 34 35 36 37 38 39 40 41 42 43 44 45 46 47 48 49 50
000
ASUS43 KGLD 272108
RWRGLD

GOODLAND FORECAST AREA HOURLY WEATHER ROUNDUP
NATIONAL WEATHER SERVICE GOODLAND KS
200 PM MST THU NOV 27 2014

...OFFICIAL OBSERVATIONS...

CITY           SKY/WX    TMP DP  RH WIND       PRES   REMARKS
GOODLAND KS    MOSUNNY   64  23  21 S17       30.08F
HILL CITY KS   SUNNY     54  23  30 S14G21    30.15F
IMPERIAL NEB   PTSUNNY   62  30  29 SW7       30.05F
MCCOOK NEB     SUNNY     53  26  35 SE10      30.08F
AKRON CO       CLOUDY    51  29  42 SW14      30.09F
BURLINGTON CO  MOSUNNY   64  24  21 SW14      30.10F
LIMON CO       CLOUDY    64  13  13 NW13      30.14F
$$

...UNOFFICIAL OBSERVATIONS...

CITY           SKY/WX    TMP DP  RH WIND       PRES   REMARKS
COLBY KS       SUNNY     61  34  36 S15       30.09F
GOVE KS          N/A     55  32  41 MISG        N/A
NORTON KS      SUNNY     48  18  29 S12       30.12S
SHARON SPRINGS   N/A     61  26  26 W16G23      N/A
TRIBUNE KS     SUNNY     61  36  39 S15       30.14F
TRENTON NEB      N/A     57  32  39 E8          N/A
YUMA CO          N/A     59  31  35 W9          N/A
$$


USA.gov is the U.S. government's official web portal to all federal, state and local government web resources and services.